Погода в Риу-Гранди

Бразилия     32°04′14″S   52°10′11″W
темп.,
°C
ветер,
м/с
пор.,
м/с
влажн.,
%
обл.,
%
осадки,
мм/ч
давл.,
гПа
погр.,
м
27 февраля, сб
сб2700:00+22всв510731 0.0 1019774
03:00+22всв59740 0.0 1019737
06:00+21всв48801 0.0 1020426
09:00+24всв586922 0.1 10221166
12:00+26всв68630 0.0 10221284
15:00+26в79620 0.0 10211277
18:00+24в69730 0.1 10201085
21:00+23всв611731 0.1 10211173
28 февраля, вс
вс2800:00+22всв7117940 0.4 10211031
03:00+22всв6107524 0.4 1019979
06:00+22всв510741 0.0 1020803
09:00+24всв696812 0.1 10211286
12:00+25всв686445 0.1 10201456
15:00+26в7106128 0.2 10181486
18:00+24в7117232 0.1 10171158
21:00+23в7127819 0.2 10181007
1 марта, пн
пн100:00+23в7117614 0.1 1017935
03:00+23в6107555 0.1 1015928
06:00+23в697796 0.0 1015889
09:00+24в6107989 0.3 1015950
12:00+25в71082100 4.3 1015999
15:00+25в71080100 7.9 1013970
18:00+24в6108396 1.8 1013890
21:00+23в5108652 1.9 1014711
2 марта, вт
вт200:00+23в5108733 0.3 1014692
03:00+22в498919 0.6 1012408
06:00+22вюв48895 0.0 1014430
09:00+24в578022 0.1 1015741
12:00+26в557111 0.0 1015871
15:00+26вюв56706 0.0 1014837
18:00+23вюв47804 0.0 1013712
21:00+21в37892 0.0 1016266
3 марта, ср
ср300:00+21в259020 0.0 1016195
03:00+20в239131 0.0 1015134
06:00+20в12915 0.0 1015112
09:00+24вюв24749 0.0 1017828
12:00+27в34650 0.0 1017910
15:00+27в55670 0.0 1015938
18:00+24в46802 0.0 1014731
21:00+22в48883 0.0 1016346